Location: Unspecified
(0.0000°N, 0.0000°E)
Time: 02:30:46
(UTC+01:00)

USA 116 - Visible Passes

Search period start: 27 November 2014 00:00
Search period end: 07 December 2014 00:00
Orbit: 405 x 834 km, 97.9° (Epoch: 18 November)

Date Brightness Start Highest point End Pass type
(mag) Time Alt. Az. Time Alt. Az. Time Alt. Az.
27 Nov 4.4 05:20:09 10° S 05:25:17 86° WSW 05:30:18 12° NNW visible
28 Nov 4.5 05:34:53 10° S 05:39:56 57° WSW 05:45:06 11° NNW visible
29 Nov 7.1 04:16:07 10° ESE 04:19:03 15° ENE 04:22:01 10° NE visible
29 Nov 5.0 05:49:48 10° SSW 05:54:35 38° WSW 05:59:31 10° NW visible
30 Nov 6.6 04:29:35 10° SE 04:33:39 23° ENE 04:37:42 10° NNE visible
30 Nov 5.6 06:04:58 10° SSW 06:09:13 25° WSW 06:13:35 10° NW visible
01 Dec 6.0 04:43:31 10° SE 04:48:16 34° ENE 04:52:29 13° NNE visible
01 Dec 6.0 06:20:31 10° SW 06:23:51 17° WSW 06:27:15 10° WNW visible
02 Dec 5.2 04:57:45 10° SSE 05:02:53 51° ENE 05:07:15 15° N visible
03 Dec 4.6 05:12:12 10° SSE 05:17:31 77° ENE 05:22:02 15° N visible
04 Dec 4.4 05:26:50 10° S 05:32:09 72° WSW 05:36:47 14° NNW visible
05 Dec 7.2 04:09:19 10° E 04:11:13 12° ENE 04:13:06 10° ENE visible
05 Dec 4.8 05:41:39 10° S 05:46:47 48° WSW 05:51:32 12° NNW visible
06 Dec 6.9 04:22:14 10° ESE 04:25:50 18° ENE 04:29:18 10° NE visible
06 Dec 5.3 05:56:41 10° SSW 06:01:25 32° WSW 06:06:07 10° NW visible
